COSMOS 2251 DEB, 34431

Orbit data source: Space-Track

COSMOS 2251 DEB, 34431 is space debris in LEO originally from a launch on Wed, 16 Jun 1993 UTC launched from the Plesetsk Missile And Space Complex (PKMTR). The debris from Iridium 33, an American commercial communications satellite, has been tracked extensively since its accidental collision with the defunct Russian satellite Cosmos 2251 in 2009. This event, occurring at high speed in low Earth orbit (LEO), generated thousands of pieces of space debris, significantly increasing the risk of further collisions. The Iridium 33 debris cloud has impacted space traffic management and orbital debris mitigation strategies, making it a subject of ongoing study in space situational awareness.

Loading next visibility...
Identifier
34431, 1993-036RY
Orbit
LEO
Country
Flag of CISCIS
Related business
Manufacturer
Unknown
Mission
Spacecraft
Bus & Motor
Unknown
Mass
Unknown
Launch date (UTC)
1993-06-16 (33 years ago)
Launch vehicle
Unknown
Launch site
Plesetsk Missile And Space Complex (PKMTR)
Object type
Payload
Rocket body
Debris
Shape & HBR
Unknown shape, 0.1 m
Radar Cross Section
Small (<0.1 m²)

Expand to show TLE details & history
Last TLE update: 15 hours ago

TLE from 15 hours ago
0 COSMOS 2251 DEB
1 34431U 93036RY  26119.89865222  .00001424  00000-0  55685-3 0  9990
2 34431  74.0739 285.0113 0067267 235.4886 123.9901 14.29235236891168
Epoch: 2026-04-29T21:34Z
TLE epoch observation values (Epoch: 2026-04-29T21:34:03.551Z)
Latitude
-0.00001°
Longitude
103.6435°
Altitude
824.092 km
Speed
7.427 km/s
True Right ascension
19h 00m 02s
True Declination
0° 00' 00"
Sunlit
Object was in daylight at epoch
Visualization orbit readout
Latitude
Unknown
Longitude
Unknown
Altitude
Unknown
Speed
Unknown
Apparent Right ascension
Unknown
Apparent Declination
Unknown
Sunlit
N/A
Visualization observer readout
Local Sidereal Time
19:47:48
Azimuth
Unknown
Elevation
Unknown
Doppler factor
Unknown
Orbital elements
Apogee altitude
840.147 km
Perigee altitude
743.686 km
Semi-major axis
7,170.053 km
Eccentricity
0.00673
Inclination
74.0739°
RAAN
285.0113°
Arg. of periapsis
235.4886°
True anomaly
124.62621°
Mean anomaly
123.9901°
Eccentric anomaly
124.30846°
Mean motion
3.57486 °/min
Orbital period
100.7 mins
BSTAR
0.00055685
Loading maneuver chart data...
Computing Atmospheric mass density...

Documentation

Showing up to 5 results
|